Location: Mount Tamalpais State Park
(37.9108°N, 122.6128°W)
Time: 12:50:40
(UTC-07:00)

Cosmos 1814 Rocket - Visible Passes

Search period start: 29 August 2016 00:00
Search period end: 08 September 2016 00:00
Orbit: 745 x 787 km, 74.1° (Epoch: 29 August)

Date Brightness Start Highest point End Pass type
(mag) Time Alt. Az. Time Alt. Az. Time Alt. Az.
29 Aug 7.2 05:56:50 10° NNE 05:59:14 13° NE 06:01:38 10° E visible
29 Aug 4.4 20:29:51 10° S 20:34:52 43° ESE 20:39:52 10° NNE visible
29 Aug 6.4 22:12:56 10° WSW 22:17:03 22° WNW 22:21:10 10° N visible
30 Aug 5.5 21:34:23 10° SW 21:39:19 37° WNW 21:44:14 10° N visible
31 Aug 4.5 20:56:23 10° SSW 21:01:41 65° WNW 21:06:58 10° NNE visible
01 Sep 6.9 05:45:04 10° NNE 05:48:55 21° ENE 05:52:44 10° ESE visible
01 Sep 4.0 20:18:52 10° S 20:24:10 72° ESE 20:29:27 10° NNE visible
01 Sep 7.1 22:03:56 10° W 22:06:44 14° WNW 22:09:31 10° NNW visible
02 Sep 7.3 05:08:59 10° NNE 05:11:02 12° NE 05:13:03 10° E visible
02 Sep 6.4 21:24:38 10° WSW 21:28:53 24° WNW 21:33:07 10° N visible
03 Sep 4.8 06:11:04 10° N 06:16:10 57° ENE 06:21:11 10° SSE visible
03 Sep 5.5 20:46:10 10° SW 20:51:08 40° WNW 20:56:07 10° N visible
04 Sep 5.9 05:33:52 10° N 05:38:30 32° ENE 05:43:05 10° SE visible
04 Sep 4.4 20:08:13 10° SSW 20:13:32 70° WNW 20:18:49 10° NNE visible
05 Sep 6.8 04:57:02 10° NNE 05:00:43 19° ENE 05:04:22 10° ESE visible
05 Sep 7.2 21:15:31 10° W 21:18:32 15° WNW 21:21:34 10° NNW visible
06 Sep 7.3 04:21:14 10° NE 04:22:48 11° NE 04:24:23 10° ENE visible
06 Sep 3.9 06:00:22 10° NNW 06:05:33 86° WSW 06:10:40 10° SSE visible
06 Sep 6.5 20:36:21 10° WSW 20:40:42 25° WNW 20:45:01 10° N visible
07 Sep 4.8 05:22:56 10° N 05:28:00 53° ENE 05:32:58 10° SE visible
07 Sep 5.5 19:57:57 10° SW 20:02:59 42° WNW 20:08:00 10° N visible
